Location: Unspecified
(38.6830°S, 0.0000°E)
Time: 10:56:37
(UTC+00:00)

Envisat - Pass Details

Date: 04 June 2019
Orbit: 764 x 766 km, 98.1° (Epoch: 20 June)

Event Time Altitude Azimuth Distance (km) Brightness Sun altitude
Rises 05:19:42 0° 51° (NE) 3,230 7.3 -21.0°
Reaches altitude 10° 05:22:27 10° 66° (ENE) 2,313 6.6 -20.5°
Maximum altitude 05:26:16 22° 114° (ESE) 1,658 5.3 -19.8°
Drops below altitude 10° 05:30:07 10° 163° (SSE) 2,335 5.5 -19.1°
Sets 05:32:54 0° 177° (S) 3,271 6.1 -18.5°
